Regional Weather Roundup
Issued by NWS Newport/Morehead, NC

Current Version | Previous Version | Graphics & Text | Print | Product List | Glossary On
Versions: 1 2 3 4 5 6 7 8 9 10 11 12 13 14 15 16 17 18 19 20 21 22 23 24 25 26 27 28 29 30 31 32 33 34 35 36 37 38 39 40 41 42 43 44 45 46 47 48 49 50
000 ASUS42 KMHX 231425 RWRMHX WEATHER ROUNDUP FOR EASTERN NORTH CAROLINA NATIONAL WEATHER SERVICE NEWPORT/MOREHEAD CITY NC 1000 AM EDT FRI JUN 23 2017 NOTE: "FAIR" INDICATES FEW OR NO CLOUDS BELOW 12,000 FEET WITH NO SIGNIFICANT WEATHER AND/OR OBSTRUCTIONS TO VISIBILITY NCZ015>017-031-032-045>047-102-103-231500- NORTH COAST CITY SKY/WX TMP DP RH WIND PRES REMARKS EDENTON PTSUNNY 82 75 81 SW8 30.00F ELIZABETH CITY CLOUDY 80 77 90 SW12 29.99S KITTY HAWK CLOUDY 81 74 79 SW6 29.99S MANTEO CLOUDY 81 74 81 W10 30.01S $$ NCZ045>047-081-094-103-104-231500- CENTRAL COAST CITY SKY/WX TMP DP RH WIND PRES REMARKS FRISCO CLOUDY 81 75 82 SW8 30.03F $$ NCZ095-097-098-100-101-231500- SOUTHERN COAST CITY SKY/WX TMP DP RH WIND PRES REMARKS BEAUFORT CLOUDY 82 79 90 SW13 30.03F CEDAR ISLAND NOT AVBL JACKSONVILLE CLOUDY 82 77 84 SW14 30.02F PINEY ISLAND CLOUDY N/A N/A N/A SW12 30.02F WILMINGTON CLOUDY 83 76 79 SW15 30.04F $$ NCZ011>013-027>030-043-044-078>080-089-090>093-098-231500- COASTAL PLAIN CITY SKY/WX TMP DP RH WIND PRES REMARKS AHOSKIE N/A 77 75 92 S5 29.98F CLINTON CLOUDY 80 77 90 SW5 30.02F ELIZABETHTOWN NOT AVBL GOLDSBORO PTSUNNY 80 80 100 SW13 29.99F GREENVILLE PTSUNNY 81 77 89 W8 30.02F HAVELOCK CLOUDY 83 76 79 SW13 30.03F KENANSVILLE CLOUDY 82 77 83 SW13 30.02F KINSTON PTSUNNY 81 75 83 SW8 30.01F NEW BERN CLOUDY 82 77 84 SW10 30.03F RICHLANDS CLOUDY 82 77 83 SW13 30.02F ROCKY MOUNT PTSUNNY 77 76 96 SW9 29.99F WASHINGTON LGT RAIN 80 75 84 SW9 30.01F WHITEVILLE PTSUNNY 83 74 73 SW10 30.03F $$ AMZ130-135-150-152-154-156-158-170-250-252-270-ANZ085-086-088-633-658-670-231500- MARINE OBSERVATIONS STATION/POSITION TIME TEMP WIND PRES WAVE SWELL AIR SEA DIR/SP/G HT/PER HT/PER (UTC) (F) (DEG/KT/KT) (MB) (FT/S) (FT/S) CHESAPEAKE LIGHT NOT AVBL 64 E VA BEACH 1250 73 72 230/ 8/ 8 1015.8 3/ 8 3/ 8 DUCK 1400 79 63 230/ 12/ 16 1015.3 2 E DUCK NOT AVBL OREGON INLET 1400 80 79 230/ 16/ 18 1016.1 13E OREGON INLT 1348 72 N/A 3/ 9 2/ 9 HATTERAS CG 1400 81 79 240/ 7/ 13 1016.7 DIAMOND BUOY 1250 80 80 240/ 14/ 16 1017.0 3/ 8 2/ 8 CAPE LOOKOUT 1400 81 230/ 10/ 14 1016.8 BEAUFORT LAB 1400 81 78 230/ 5/ 11 1016.4 30 SE NEW RVR IN 1408 80 80 240/ 14/ 19 1017.4 30 SE NEW RVR IN 1343 80 N/A 4/ 8 27 SE WRIGHTSVLE 1408 79 80 220/ 14/ 17 1017.3 5 SE WRIGHTSVLE 1408 80 79 220/ 8/ 14 1017.1 225 S CAPE HAT 1350 80 81 220/ 10/ 12 1019.8 4/ 8 3/ 8 41 SE CHARLESTON 1410 80 81 220/ 14/ 16 1018.0 $$

USA.gov is the U.S. government's official web portal to all federal, state and local government web resources and services.